FLOCK 4S-39 (47490 NORAD) Tracking and Keplerian Element Data

This shows tracking and keplerian element data for the satellite.

Feedback or suggestion? Click here.




ElementValue
Catalog47490
NameFLOCK 4S-39
Epoch Orbit1199
Epoch Day101.94307595
Epoch Year2021
RAAN164.3821
Inclination97.5035
Eccentricity0.0009888
Argument of Perigee339.6146
Mean Anonmoly20.4689
Mean Motion15.12504356
Decay Rate9.77E-06
L11 47490U 21006CF 21101.94307595 .00000977 00000-0 59779-4 0 9994
L22 47490 97.5035 164.3821 0009888 339.6146 20.4689 15.12504356 11996

Live tracking and technical data element details for FLOCK 4S-39 (NORAD 47490). FLOCK 4S-39 can be tracked NOW for your location showing map with azimuth and elevation plus other details from your city location.

Track the satellite on the map from your city or location and see movement details for azimuth, elevation, latitude, longitude, range, height, and movement on the map or in text.







IsCatalogInMostPopularTable: catalog: 47490, numindb: 17
Update: records affected: 1



GetName: 47490 FLOCK 4S-39

Hit Count: updated at: Tue, 13 Apr 2021 05:08:34 GMT